Location: Clermont
(50.2608°N, 4.3172°E)
Time: 05:31:22
(UTC+00:00)

Cosmos 2173 Rocket - Pass Details

Date: 13 August 2020
Orbit: 945 x 1000 km, 82.9° (Epoch: 19 September)

Event Time Altitude Azimuth Distance (km) Brightness Sun altitude
Exits shadow 20:52:59 21° 145° (SE) 1,997 5.0 -15.0°
Maximum altitude 20:56:33 41° 89° (E) 1,360 4.5 -15.4°
Drops below altitude 10° 21:02:12 10° 21° (NNE) 2,683 6.7 -16.0°
Sets 21:04:49 0° 15° (NNE) 3,629 7.5 -16.2°
